Вернуться в каталог

STARLINK-35324

АктивенСвязьVLEO
NORAD 65838·PAYLOAD·🇺🇸 United States

Запущен Sep 29, 2025 с Vandenberg Space Force Base

Loading…

Ближайшие Пролёты (ближайшие 24 часа)

TLE

СвежийSource: CelesTrak SupGP

Эпоха: Sep 14, 2026, 22:33 UTC

1 65838C 25221R   26257.94006944  .00049616  00000+0  14662-2 0  2573
2 65838  53.1579 287.3636 0001262  92.2881 344.0018 15.34360027    10

Отслеживайте STARLINK-35324 в реальном времени с AllMySat

Download on the App Store